Daviess Cnty AP, Washington,, IN

5:10 PM EST on December 10, 2019 (GMT -0500)
Daviess County

Weather History for KDCY - October, 2019

Change the Weather History Date:

Saturday, October 12, 2019

  Actual Average (KLWV) Record (KLWV)
Temperature  
Mean Temperature 44 °F -  
Max Temperature 56 °F 68 °F 87 °F (1997)
Min Temperature 33 °F 44 °F 34 °F (2006)
Degree Days  
Heating Degree Days 20    
Moisture  
Dew Point 33 °F    
Average Humidity 72    
Maximum Humidity 100    
Minimum Humidity 35    
Precipitation  
Precipitation 0.00 in - - ()
Sea Level Pressure  
Sea Level Pressure 30.15 in    
Wind  
Wind Speed 5 mph (SW)    
Max Wind Speed 13 mph    
Max Gust Speed 18 mph    
Visibility 10 miles    
Events      
Averages and records for this station are not official NWS values.
T = Trace of Precipitation, MM = Missing Value Source: NWS Daily Summary

Daily Weather History Graph

Daily Weather History Graph

Search for Another Location

Airport or City:

Astronomy

Oct. 12, 2019 Rise Set
Actual Time 7:54 AM EDT 7:14 PM EDT
Civil Twilight 7:27 AM EDT 7:41 PM EDT
Nautical Twilight 6:57 AM EDT 8:12 PM EDT
Astronomical Twilight 6:26 AM EDT 8:43 PM EDT
Moon 7:09 PM EDT (10/12) 6:33 AM EDT (10/12)
Length of Visible Light 12h 13m
Length of Day
11h 20m
Waxing Gibbous, 99% of the Moon is Illuminated
Oct 12
Waxing Gibbous
Oct 13
Full
Oct 21
Last Quarter
Oct 27
New
Nov 4
First Quarter

Hourly Weather History & Observations

Time (EDT) Temp. Windchill Dew Point Humidity Pressure Visibility Wind Dir Wind Speed Gust Speed Precip Events Conditions
12:15 AM 40.5 °F 36.5 °F 37.6 °F 89% 30.17 in 10.0 mi WNW 5.8 mph - N/A   Clear
12:35 AM 40.3 °F 36.3 °F 37.0 °F 88% 30.17 in 10.0 mi WNW 5.8 mph - N/A   Clear
12:55 AM 39.9 °F 37.8 °F 36.5 °F 88% 30.17 in 10.0 mi West 3.5 mph - N/A   Clear
1:15 AM 37.9 °F 34.4 °F 37.6 °F 99% 30.17 in 10.0 mi West 4.6 mph - N/A   Clear
1:35 AM 37.6 °F 33.1 °F 37.4 °F 99% 30.17 in 10.0 mi West 5.8 mph - N/A   Clear
1:55 AM 37.4 °F 33.8 °F 37.4 °F 100% 30.17 in 10.0 mi West 4.6 mph - N/A   Clear
2:15 AM 37.0 °F 34.5 °F 36.7 °F 99% 30.17 in 10.0 mi WSW 3.5 mph - N/A   Clear
2:35 AM 36.9 °F 33.1 °F 36.7 °F 99% 30.17 in 10.0 mi West 4.6 mph - N/A   Clear
2:55 AM 36.9 °F 34.3 °F 36.7 °F 99% 30.17 in 10.0 mi West 3.5 mph - N/A   Clear
3:15 AM 36.7 °F - 36.5 °F 99% 30.17 in 10.0 mi Calm Calm - N/A   Clear
3:35 AM 36.7 °F - 36.5 °F 99% 30.17 in 10.0 mi Calm Calm - N/A   Clear
3:55 AM 36.3 °F 33.7 °F 36.0 °F 99% 30.17 in 10.0 mi West 3.5 mph - N/A   Clear
4:15 AM 36.5 °F 33.9 °F 36.1 °F 99% 30.17 in 10.0 mi WSW 3.5 mph - N/A   Clear
4:35 AM 36.5 °F - 36.5 °F 100% 30.17 in 10.0 mi Calm Calm - N/A   Clear
4:55 AM 35.8 °F - 35.6 °F 99% 30.17 in 10.0 mi Calm Calm - N/A   Clear
5:15 AM 35.8 °F - 35.6 °F 99% 30.17 in 10.0 mi Calm Calm - N/A   Clear
5:35 AM 35.1 °F 30.1 °F 34.9 °F 99% 30.18 in 10.0 mi WSW 5.8 mph - N/A   Clear
5:55 AM 35.1 °F 30.1 °F 34.9 °F 99% 30.18 in 10.0 mi West 5.8 mph - N/A   Clear
6:15 AM 34.7 °F 30.6 °F 34.7 °F 100% 30.19 in 10.0 mi WSW 4.6 mph - N/A   Clear
6:35 AM 35.1 °F 30.1 °F 34.7 °F 99% 30.19 in 10.0 mi WSW 5.8 mph - N/A   Clear
6:55 AM 35.1 °F 30.1 °F 34.9 °F 99% 30.20 in 10.0 mi West 5.8 mph - N/A   Clear
7:15 AM 34.2 °F 31.2 °F 34.0 °F 99% 30.20 in 10.0 mi WSW 3.5 mph - N/A   Clear
7:35 AM 33.8 °F - 33.4 °F 99% 30.20 in 10.0 mi Calm Calm - N/A   Clear
7:55 AM 33.1 °F 30.0 °F 32.9 °F 99% 30.21 in 10.0 mi WSW 3.5 mph - N/A   Clear
8:15 AM 34.0 °F 31.0 °F 33.8 °F 99% 30.21 in 10.0 mi WSW 3.5 mph - N/A   Clear
8:35 AM 35.6 °F 31.7 °F 35.6 °F 100% 30.21 in 10.0 mi WSW 4.6 mph - N/A   Clear
8:55 AM 38.1 °F 34.6 °F 37.2 °F 97% 30.21 in 10.0 mi SW 4.6 mph - N/A   Clear
9:15 AM 40.1 °F 36.9 °F 36.7 °F 88% 30.21 in 10.0 mi SW 4.6 mph - N/A   Clear
9:35 AM 41.2 °F 37.3 °F 36.0 °F 82% 30.21 in 10.0 mi WSW 5.8 mph - N/A   Clear
9:55 AM 43.0 °F 39.5 °F 35.4 °F 75% 30.21 in 10.0 mi WSW 5.8 mph - N/A   Clear
10:15 AM 43.9 °F 40.5 °F 33.1 °F 66% 30.21 in 10.0 mi WSW 5.8 mph - N/A   Clear
10:35 AM 45.0 °F 41.8 °F 32.5 °F 62% 30.21 in 10.0 mi WSW 5.8 mph - N/A   Clear
10:55 AM 45.7 °F 42.0 °F 27.9 °F 50% 30.21 in 10.0 mi SW 6.9 mph - N/A   Clear
11:15 AM 46.9 °F - 27.7 °F 47% 30.21 in 10.0 mi West 6.9 mph - N/A   Clear
11:35 AM 47.5 °F - 29.7 °F 50% 30.22 in 10.0 mi WSW 8.1 mph - N/A   Clear
11:55 AM 48.2 °F - 27.9 °F 45% 30.22 in 10.0 mi West 9.2 mph - N/A   Clear
12:15 PM 49.3 °F - 29.7 °F 47% 30.22 in 10.0 mi West 10.4 mph - N/A   Clear
12:35 PM 49.6 °F - 30.0 °F 47% 30.22 in 10.0 mi West 9.2 mph 18.4 mph N/A   Clear
12:55 PM 50.5 °F - 29.5 °F 44% 30.21 in 10.0 mi WSW 12.7 mph 17.3 mph N/A   Clear
1:15 PM 51.6 °F - 29.3 °F 42% 30.20 in 10.0 mi WSW 11.5 mph 16.1 mph N/A   Clear
1:35 PM 51.6 °F - 28.0 °F 40% 30.20 in 10.0 mi SW 6.9 mph 16.1 mph N/A   Clear
1:55 PM 52.7 °F - 28.4 °F 39% 30.18 in 10.0 mi WSW 10.4 mph 16.1 mph N/A   Clear
2:15 PM 53.1 °F - 28.0 °F 38% 30.17 in 10.0 mi West 9.2 mph 16.1 mph N/A   Clear
2:30 PM 53.8 °F - 28.9 °F 39% 30.16 in 10.0 mi SW 9.2 mph - N/A   Clear
2:55 PM 54.1 °F - 28.2 °F 37% 30.15 in 10.0 mi SW 8.1 mph - N/A   Clear
3:15 PM 54.5 °F - 27.7 °F 36% 30.14 in 10.0 mi SW 8.1 mph - N/A   Clear
3:35 PM 55.2 °F - 29.8 °F 38% 30.13 in 10.0 mi SSW 8.1 mph - N/A   Clear
3:55 PM 55.4 °F - 28.2 °F 35% 30.12 in 10.0 mi SW 9.2 mph - N/A   Clear
4:15 PM 56.1 °F - 28.9 °F 35% 30.11 in 10.0 mi SSW 8.1 mph - N/A   Clear
4:35 PM 55.9 °F - 29.3 °F 36% 30.10 in 10.0 mi South 9.2 mph - N/A   Clear
4:55 PM 56.1 °F - 29.5 °F 36% 30.10 in 10.0 mi South 5.8 mph - N/A   Clear
5:15 PM 55.8 °F - 30.0 °F 37% 30.08 in 10.0 mi South 9.2 mph - N/A   Clear
5:35 PM 55.8 °F - 31.1 °F 39% 30.08 in 10.0 mi South 10.4 mph - N/A   Clear
5:55 PM 55.4 °F - 30.7 °F 39% 30.08 in 10.0 mi South 12.7 mph - N/A   Clear
6:15 PM 54.9 °F - 30.9 °F 40% 30.08 in 10.0 mi SSW 11.5 mph - N/A   Clear
6:35 PM 54.0 °F - 31.1 °F 42% 30.07 in 10.0 mi South 6.9 mph - N/A   Clear
6:55 PM 52.2 °F - 32.2 °F 47% 30.07 in 10.0 mi South 6.9 mph - N/A   Clear
7:10 PM 49.8 °F - 32.9 °F 52% 30.07 in 10.0 mi South 5.8 mph - N/A   Clear
7:35 PM 47.5 °F - 33.1 °F 57% 30.07 in 10.0 mi SSW 4.6 mph - N/A   Clear
7:55 PM 45.3 °F 44.0 °F 34.0 °F 65% 30.08 in 10.0 mi South 3.5 mph - N/A   Clear
8:15 PM 42.8 °F - 34.3 °F 72% 30.08 in 10.0 mi Calm Calm - N/A   Clear
8:35 PM 40.1 °F - 34.9 °F 82% 30.08 in 10.0 mi Calm Calm - N/A   Clear
8:55 PM 39.0 °F 36.8 °F 34.9 °F 85% 30.08 in 10.0 mi SSE 3.5 mph - N/A   Clear
9:15 PM 38.7 °F 35.2 °F 35.6 °F 89% 30.07 in 10.0 mi SSE 4.6 mph - N/A   Clear
9:35 PM 40.8 °F 36.9 °F 34.3 °F 78% 30.07 in 10.0 mi SSE 5.8 mph - N/A   Clear
9:50 PM 41.0 °F 38.0 °F 34.7 °F 78% 30.07 in 10.0 mi SSE 4.6 mph - N/A   Clear
10:15 PM 39.9 °F 35.1 °F 33.8 °F 79% 30.07 in 10.0 mi South 6.9 mph - N/A   Clear
10:35 PM 40.6 °F 36.7 °F 33.8 °F 77% 30.06 in 10.0 mi SSE 5.8 mph - N/A   Clear
10:55 PM 38.8 °F 34.6 °F 33.8 °F 82% 30.06 in 10.0 mi South 5.8 mph - N/A   Clear
11:15 PM 40.6 °F 35.4 °F 34.2 °F 78% 30.05 in 10.0 mi South 8.1 mph - N/A   Clear
11:30 PM 41.9 °F 37.5 °F 34.3 °F 75% 30.05 in 10.0 mi South 6.9 mph - N/A   Clear